Time,TemperatureF,DewpointF,PressureIn,WindDirection,WindDirectionDegrees,WindSpeedMPH,WindSpeedGustMPH,Humidity,HourlyPrecipIn,Conditions,Clouds,dailyrainin,SoftwareType,DateUTC
2013-05-17 00:03:00,61.6,58.9,29.76,SSE,149,3.0,4.0,91,0.00,,,0.31,Wunderground v.1.15,2013-05-17 05:03:00,
2013-05-17 00:08:00,61.8,59.1,29.76,SSE,149,1.0,4.0,91,0.00,,,0.00,Wunderground v.1.15,2013-05-17 05:08:00,
2013-05-17 00:14:00,61.9,59.2,29.77,SSE,149,0.0,2.0,91,0.00,,,0.00,Wunderground v.1.15,2013-05-17 05:14:00,
2013-05-17 00:19:00,61.8,58.8,29.77,SSE,149,0.0,2.0,90,0.00,,,0.00,Wunderground v.1.15,2013-05-17 05:19:00,
2013-05-17 00:24:00,61.7,58.7,29.77,SSE,149,3.0,4.0,90,0.00,,,0.01,Wunderground v.1.15,2013-05-17 05:24:00,
2013-05-17 00:29:00,61.6,58.9,29.77,SSE,149,0.0,4.0,91,0.00,,,0.01,Wunderground v.1.15,2013-05-17 05:29:00,
2013-05-17 00:34:00,61.4,58.7,29.77,SSE,149,0.0,1.0,91,0.15,,,0.03,Wunderground v.1.15,2013-05-17 05:34:00,
2013-05-17 00:40:00,61.4,58.7,29.77,SSE,149,0.0,0.0,91,0.09,,,0.04,Wunderground v.1.15,2013-05-17 05:40:00,
2013-05-17 00:45:00,61.4,58.7,29.78,SSE,149,0.0,0.0,91,0.09,,,0.04,Wunderground v.1.15,2013-05-17 05:45:00,
2013-05-17 00:50:00,61.3,58.7,29.78,SSE,149,0.0,0.0,91,0.05,,,0.04,Wunderground v.1.15,2013-05-17 05:50:00,
2013-05-17 00:55:00,61.3,58.7,29.78,SSE,149,0.0,0.0,91,0.05,,,0.05,Wunderground v.1.15,2013-05-17 05:55:00,
2013-05-17 01:00:00,61.4,58.7,29.77,SSE,149,4.0,4.0,91,0.19,,,0.07,Wunderground v.1.15,2013-05-17 06:00:00,
2013-05-17 01:06:00,61.3,58.7,29.77,SSE,149,2.0,7.0,91,0.11,,,0.08,Wunderground v.1.15,2013-05-17 06:06:00,
2013-05-17 01:11:00,61.1,58.5,29.78,SSE,149,0.0,3.0,91,0.13,,,0.09,Wunderground v.1.15,2013-05-17 06:11:00,
2013-05-17 01:16:00,61.0,58.4,29.79,SSE,149,0.0,3.0,91,0.10,,,0.09,Wunderground v.1.15,2013-05-17 06:16:00,
2013-05-17 01:21:00,60.9,58.3,29.78,SSE,149,0.0,0.0,91,0.29,,,0.13,Wunderground v.1.15,2013-05-17 06:21:00,
2013-05-17 01:27:00,60.8,58.2,29.78,SSE,149,4.0,4.0,91,0.12,,,0.15,Wunderground v.1.15,2013-05-17 06:27:00,
2013-05-17 01:32:00,60.9,58.3,29.78,SSE,149,2.0,3.0,91,0.11,,,0.15,Wunderground v.1.15,2013-05-17 06:32:00,
2013-05-17 01:37:00,61.0,58.4,29.77,SSE,149,1.0,3.0,91,0.11,,,0.16,Wunderground v.1.15,2013-05-17 06:37:00,
2013-05-17 01:42:00,61.1,58.5,29.77,SSE,149,5.0,5.0,91,0.11,,,0.17,Wunderground v.1.15,2013-05-17 06:42:00,
2013-05-17 01:47:00,60.8,58.2,29.77,SSE,149,2.0,5.0,91,0.09,,,0.18,Wunderground v.1.15,2013-05-17 06:47:00,
2013-05-17 01:53:00,60.5,57.9,29.77,SSE,149,3.0,4.0,91,0.07,,,0.18,Wunderground v.1.15,2013-05-17 06:53:00,
2013-05-17 01:57:00,60.4,58.1,29.77,SSE,149,3.0,5.0,92,0.04,,,0.18,Wunderground v.1.15,2013-05-17 06:57:00,
2013-05-17 02:02:00,60.3,58.0,29.76,SSE,149,3.0,6.0,92,0.00,,,0.18,Wunderground v.1.15,2013-05-17 07:02:00,
2013-05-17 02:07:00,60.2,57.9,29.76,SSE,149,4.0,7.0,92,0.00,,,0.18,Wunderground v.1.15,2013-05-17 07:07:00,
2013-05-17 02:13:00,60.4,58.1,29.76,SSE,149,5.0,7.0,92,0.00,,,0.19,Wunderground v.1.15,2013-05-17 07:13:00,
2013-05-17 02:18:00,60.6,58.3,29.77,SSE,149,5.0,7.0,92,0.11,,,0.20,Wunderground v.1.15,2013-05-17 07:18:00,
2013-05-17 02:23:00,60.5,58.2,29.77,SSE,149,5.0,10.0,92,0.21,,,0.21,Wunderground v.1.15,2013-05-17 07:23:00,
2013-05-17 02:28:00,60.2,57.9,29.77,SE,132,3.0,11.0,92,0.12,,,0.22,Wunderground v.1.15,2013-05-17 07:28:00,
2013-05-17 02:33:00,60.0,57.7,29.77,SE,132,3.0,6.0,92,0.08,,,0.23,Wunderground v.1.15,2013-05-17 07:33:00,
2013-05-17 02:38:00,60.0,57.7,29.76,SE,132,3.0,7.0,92,0.08,,,0.23,Wunderground v.1.15,2013-05-17 07:38:00,
2013-05-17 02:43:00,59.9,57.6,29.76,SE,132,0.0,4.0,92,0.05,,,0.23,Wunderground v.1.15,2013-05-17 07:43:00,
2013-05-17 02:48:00,59.8,57.5,29.76,SE,132,0.0,4.0,92,0.00,,,0.23,Wunderground v.1.15,2013-05-17 07:48:00,
2013-05-17 02:53:00,59.7,57.4,29.76,SE,132,0.0,1.0,92,0.00,,,0.23,Wunderground v.1.15,2013-05-17 07:53:00,
2013-05-17 02:58:00,59.6,57.3,29.75,SE,132,4.0,4.0,92,0.00,,,0.23,Wunderground v.1.15,2013-05-17 07:58:00,
2013-05-17 03:03:00,59.6,57.3,29.75,SE,132,2.0,6.0,92,0.00,,,0.23,Wunderground v.1.15,2013-05-17 08:03:00,
2013-05-17 03:09:00,59.7,57.4,29.75,SE,132,2.0,6.0,92,0.00,,,0.23,Wunderground v.1.15,2013-05-17 08:09:00,
2013-05-17 03:14:00,59.8,57.5,29.75,SE,132,4.0,6.0,92,0.00,,,0.23,Wunderground v.1.15,2013-05-17 08:14:00,
2013-05-17 03:19:00,60.0,57.7,29.75,SE,132,4.0,8.0,92,0.00,,,0.23,Wunderground v.1.15,2013-05-17 08:19:00,
2013-05-17 03:24:00,60.1,57.8,29.76,SE,132,3.0,6.0,92,0.00,,,0.23,Wunderground v.1.15,2013-05-17 08:24:00,
2013-05-17 03:29:00,60.3,58.0,29.76,SE,132,4.0,6.0,92,0.00,,,0.23,Wunderground v.1.15,2013-05-17 08:29:00,
2013-05-17 03:34:00,60.5,58.2,29.76,SE,132,5.0,5.0,92,0.00,,,0.23,Wunderground v.1.15,2013-05-17 08:34:00,
2013-05-17 03:39:00,60.5,58.2,29.76,SE,132,5.0,6.0,92,0.00,,,0.23,Wunderground v.1.15,2013-05-17 08:39:00,
2013-05-17 03:44:00,60.5,58.2,29.76,SE,132,5.0,7.0,92,0.00,,,0.23,Wunderground v.1.15,2013-05-17 08:44:00,
2013-05-17 03:49:00,60.6,58.3,29.76,SE,132,1.0,7.0,92,0.00,,,0.23,Wunderground v.1.15,2013-05-17 08:49:00,
2013-05-17 03:54:00,60.6,58.3,29.75,SE,132,3.0,5.0,92,0.00,,,0.23,Wunderground v.1.15,2013-05-17 08:54:00,
2013-05-17 03:59:00,60.6,58.3,29.75,SE,132,2.0,6.0,92,0.00,,,0.23,Wunderground v.1.15,2013-05-17 08:59:00,
2013-05-17 04:04:00,60.6,58.3,29.75,SE,132,3.0,6.0,92,0.00,,,0.23,Wunderground v.1.15,2013-05-17 09:04:00,
2013-05-17 04:09:00,60.6,58.0,29.75,SE,132,5.0,6.0,91,0.00,,,0.23,Wunderground v.1.15,2013-05-17 09:09:00,
2013-05-17 04:14:00,60.6,58.0,29.75,SE,132,5.0,6.0,91,0.00,,,0.23,Wunderground v.1.15,2013-05-17 09:14:00,
2013-05-17 04:19:00,60.7,58.1,29.75,SE,132,6.0,7.0,91,0.00,,,0.23,Wunderground v.1.15,2013-05-17 09:19:00,
2013-05-17 04:24:00,60.7,58.1,29.75,SE,132,4.0,9.0,91,0.00,,,0.23,Wunderground v.1.15,2013-05-17 09:24:00,
2013-05-17 04:29:00,60.7,58.1,29.75,SE,132,4.0,9.0,91,0.00,,,0.23,Wunderground v.1.15,2013-05-17 09:29:00,
2013-05-17 04:34:00,60.5,57.9,29.75,SE,132,5.0,7.0,91,0.00,,,0.23,Wunderground v.1.15,2013-05-17 09:34:00,
2013-05-17 04:39:00,60.3,57.7,29.75,SE,132,5.0,9.0,91,0.00,,,0.23,Wunderground v.1.15,2013-05-17 09:39:00,
2013-05-17 04:44:00,60.2,57.6,29.76,SE,132,4.0,7.0,91,0.00,,,0.23,Wunderground v.1.15,2013-05-17 09:44:00,
2013-05-17 04:49:00,60.2,57.9,29.75,SE,132,4.0,7.0,92,0.00,,,0.23,Wunderground v.1.15,2013-05-17 09:49:00,
2013-05-17 04:54:00,60.2,57.9,29.75,SE,132,7.0,8.0,92,0.00,,,0.23,Wunderground v.1.15,2013-05-17 09:54:00,
2013-05-17 04:59:00,60.3,58.0,29.75,SE,132,7.0,9.0,92,0.00,,,0.23,Wunderground v.1.15,2013-05-17 09:59:00,
2013-05-17 05:04:00,60.3,58.0,29.75,SE,132,7.0,10.0,92,0.00,,,0.23,Wunderground v.1.15,2013-05-17 10:04:00,
2013-05-17 05:09:00,60.3,58.0,29.75,SE,132,9.0,10.0,92,0.00,,,0.23,Wunderground v.1.15,2013-05-17 10:09:00,
2013-05-17 05:14:00,60.2,57.9,29.76,SE,132,5.0,10.0,92,0.00,,,0.23,Wunderground v.1.15,2013-05-17 10:14:00,
2013-05-17 05:19:00,60.1,57.8,29.76,SE,132,4.0,10.0,92,0.00,,,0.23,Wunderground v.1.15,2013-05-17 10:19:00,
2013-05-17 05:24:00,60.1,57.8,29.76,SE,132,8.0,9.0,92,0.00,,,0.23,Wunderground v.1.15,2013-05-17 10:24:00,
2013-05-17 05:29:00,60.3,58.0,29.76,SE,132,5.0,9.0,92,0.00,,,0.23,Wunderground v.1.15,2013-05-17 10:29:00,
2013-05-17 05:34:00,60.3,58.0,29.76,SE,132,4.0,9.0,92,0.00,,,0.23,Wunderground v.1.15,2013-05-17 10:34:00,
2013-05-17 05:39:00,60.3,58.0,29.76,SE,132,6.0,6.0,92,0.00,,,0.23,Wunderground v.1.15,2013-05-17 10:39:00,
2013-05-17 05:44:00,60.4,58.1,29.76,SE,132,6.0,9.0,92,0.00,,,0.23,Wunderground v.1.15,2013-05-17 10:44:00,
2013-05-17 05:49:00,60.4,58.1,29.76,SE,132,3.0,6.0,92,0.00,,,0.23,Wunderground v.1.15,2013-05-17 10:49:00,
2013-05-17 05:55:00,60.4,58.1,29.77,SE,132,3.0,6.0,92,0.00,,,0.23,Wunderground v.1.15,2013-05-17 10:55:00,
2013-05-17 06:00:00,60.4,58.1,29.77,SE,132,1.0,3.0,92,0.00,,,0.23,Wunderground v.1.15,2013-05-17 11:00:00,
2013-05-17 06:06:00,60.3,58.0,29.77,SE,132,3.0,5.0,92,0.00,,,0.23,Wunderground v.1.15,2013-05-17 11:06:00,
2013-05-17 06:11:00,60.5,58.2,29.77,SE,130,2.0,5.0,92,0.00,,,0.23,Wunderground v.1.15,2013-05-17 11:11:00,
2013-05-17 06:16:00,60.6,58.3,29.76,SE,130,5.0,6.0,92,0.00,,,0.23,Wunderground v.1.15,2013-05-17 11:16:00,
2013-05-17 06:21:00,60.5,58.2,29.76,SE,130,4.0,6.0,92,0.00,,,0.23,Wunderground v.1.15,2013-05-17 11:21:00,
2013-05-17 06:26:00,60.7,58.4,29.76,SE,130,6.0,8.0,92,0.00,,,0.23,Wunderground v.1.15,2013-05-17 11:26:00,
2013-05-17 06:31:00,61.1,58.8,29.77,SE,131,4.0,10.0,92,0.00,,,0.23,Wunderground v.1.15,2013-05-17 11:31:00,
2013-05-17 06:36:00,61.3,59.0,29.77,SE,134,7.0,12.0,92,0.00,,,0.23,Wunderground v.1.15,2013-05-17 11:36:00,
2013-05-17 06:41:00,61.4,59.1,29.77,SE,136,5.0,9.0,92,0.00,,,0.23,Wunderground v.1.15,2013-05-17 11:41:00,
2013-05-17 06:46:00,61.5,59.2,29.77,SE,136,8.0,9.0,92,0.00,,,0.23,Wunderground v.1.15,2013-05-17 11:46:00,
2013-05-17 06:51:00,61.6,59.3,29.78,SE,136,5.0,8.0,92,0.00,,,0.23,Wunderground v.1.15,2013-05-17 11:51:00,
2013-05-17 06:56:00,61.7,59.0,29.78,SE,136,6.0,10.0,91,0.00,,,0.23,Wunderground v.1.15,2013-05-17 11:56:00,
2013-05-17 07:01:00,61.8,59.1,29.78,SE,136,5.0,7.0,91,0.00,,,0.23,Wunderground v.1.15,2013-05-17 12:01:00,
2013-05-17 07:06:00,61.8,59.1,29.78,SE,136,3.0,7.0,91,0.00,,,0.23,Wunderground v.1.15,2013-05-17 12:06:00,
2013-05-17 07:11:00,61.9,59.2,29.78,SE,128,7.0,7.0,91,0.00,,,0.23,Wunderground v.1.15,2013-05-17 12:11:00,
2013-05-17 07:16:00,61.8,59.1,29.78,SE,128,9.0,11.0,91,0.00,,,0.23,Wunderground v.1.15,2013-05-17 12:16:00,
2013-05-17 07:21:00,61.8,59.1,29.79,ESE,111,14.0,15.0,91,0.00,,,0.23,Wunderground v.1.15,2013-05-17 12:21:00,
2013-05-17 07:26:00,61.7,58.7,29.79,ESE,113,8.0,15.0,90,0.00,,,0.23,Wunderground v.1.15,2013-05-17 12:26:00,
2013-05-17 07:31:00,61.7,58.7,29.79,ESE,114,3.0,10.0,90,0.00,,,0.23,Wunderground v.1.15,2013-05-17 12:31:00,
2013-05-17 07:36:00,61.8,59.1,29.79,ESE,117,8.0,10.0,91,0.00,,,0.23,Wunderground v.1.15,2013-05-17 12:36:00,
2013-05-17 07:41:00,61.9,59.2,29.79,ESE,123,7.0,11.0,91,0.00,,,0.23,Wunderground v.1.15,2013-05-17 12:41:00,
2013-05-17 07:46:00,62.0,59.3,29.79,ESE,121,11.0,13.0,91,0.00,,,0.23,Wunderground v.1.15,2013-05-17 12:46:00,
2013-05-17 07:51:00,62.1,59.4,29.79,ESE,122,7.0,12.0,91,0.00,,,0.23,Wunderground v.1.15,2013-05-17 12:51:00,
2013-05-17 07:57:00,62.2,59.5,29.79,SE,132,8.0,13.0,91,0.00,,,0.23,Wunderground v.1.15,2013-05-17 12:57:00,
2013-05-17 08:02:00,62.5,59.5,29.80,SE,128,11.0,14.0,90,0.00,,,0.23,Wunderground v.1.15,2013-05-17 13:02:00,
2013-05-17 08:07:00,62.7,59.7,29.80,SE,130,5.0,14.0,90,0.00,,,0.23,Wunderground v.1.15,2013-05-17 13:07:00,
2013-05-17 08:12:00,63.6,60.6,29.80,SE,130,9.0,14.0,90,0.00,,,0.23,Wunderground v.1.15,2013-05-17 13:12:00,
2013-05-17 08:17:00,64.0,61.0,29.80,SE,129,9.0,14.0,90,0.00,,,0.23,Wunderground v.1.15,2013-05-17 13:17:00,
2013-05-17 08:22:00,64.4,61.1,29.80,SE,126,12.0,14.0,89,0.00,,,0.23,Wunderground v.1.15,2013-05-17 13:22:00,
2013-05-17 08:27:00,64.4,60.8,29.80,SE,129,12.0,15.0,88,0.00,,,0.23,Wunderground v.1.15,2013-05-17 13:27:00,
2013-05-17 08:32:00,64.3,60.7,29.80,SE,125,10.0,16.0,88,0.00,,,0.23,Wunderground v.1.15,2013-05-17 13:32:00,
2013-05-17 08:37:00,64.4,60.4,29.80,SE,134,13.0,16.0,87,0.00,,,0.23,Wunderground v.1.15,2013-05-17 13:37:00,
2013-05-17 08:42:00,64.3,60.3,29.80,SE,126,12.0,13.0,87,0.00,,,0.23,Wunderground v.1.15,2013-05-17 13:42:00,
2013-05-17 08:47:00,64.3,60.3,29.80,SE,128,7.0,16.0,87,0.00,,,0.23,Wunderground v.1.15,2013-05-17 13:47:00,
2013-05-17 08:52:00,64.8,60.8,29.80,SE,131,6.0,11.0,87,0.00,,,0.23,Wunderground v.1.15,2013-05-17 13:52:00,
2013-05-17 08:57:00,64.8,60.8,29.80,SE,144,14.0,15.0,87,0.00,,,0.23,Wunderground v.1.15,2013-05-17 13:57:00,
2013-05-17 09:02:00,64.9,60.9,29.80,SE,142,9.0,19.0,87,0.00,,,0.23,Wunderground v.1.15,2013-05-17 14:02:00,
2013-05-17 09:07:00,65.4,61.1,29.80,SE,141,12.0,19.0,86,0.00,,,0.23,Wunderground v.1.15,2013-05-17 14:07:00,
2013-05-17 09:12:00,65.7,61.4,29.80,SE,138,14.0,17.0,86,0.00,,,0.23,Wunderground v.1.15,2013-05-17 14:12:00,
2013-05-17 09:17:00,65.6,61.3,29.80,SE,138,9.0,17.0,86,0.00,,,0.23,Wunderground v.1.15,2013-05-17 14:17:00,
2013-05-17 09:22:00,65.8,61.8,29.80,SE,141,10.0,15.0,87,0.00,,,0.23,Wunderground v.1.15,2013-05-17 14:22:00,
2013-05-17 09:27:00,66.1,61.8,29.80,SE,138,13.0,17.0,86,0.00,,,0.23,Wunderground v.1.15,2013-05-17 14:27:00,
2013-05-17 09:32:00,66.5,62.2,29.80,SE,138,10.0,15.0,86,0.00,,,0.23,Wunderground v.1.15,2013-05-17 14:32:00,
2013-05-17 09:37:00,67.0,62.7,29.80,SE,145,8.0,16.0,86,0.00,,,0.23,Wunderground v.1.15,2013-05-17 14:37:00,
2013-05-17 09:42:00,67.2,62.2,29.80,SE,133,13.0,16.0,84,0.00,,,0.23,Wunderground v.1.15,2013-05-17 14:42:00,
2013-05-17 09:47:00,67.3,62.3,29.80,SE,144,17.0,18.0,84,0.00,,,0.23,Wunderground v.1.15,2013-05-17 14:47:00,
2013-05-17 09:52:00,67.6,62.6,29.80,SE,144,8.0,15.0,84,0.00,,,0.23,Wunderground v.1.15,2013-05-17 14:52:00,
2013-05-17 09:57:00,67.5,62.5,29.80,SSE,147,12.0,16.0,84,0.00,,,0.23,Wunderground v.1.15,2013-05-17 14:57:00,
2013-05-17 10:02:00,67.6,62.9,29.80,SE,132,11.0,15.0,85,0.00,,,0.23,Wunderground v.1.15,2013-05-17 15:02:00,
2013-05-17 10:07:00,67.8,62.8,29.80,SE,140,11.0,16.0,84,0.00,,,0.23,Wunderground v.1.15,2013-05-17 15:07:00,
2013-05-17 10:12:00,68.5,63.5,29.79,SSE,150,8.0,15.0,84,0.00,,,0.23,Wunderground v.1.15,2013-05-17 15:12:00,
2013-05-17 10:17:00,68.1,62.7,29.79,SSE,157,14.0,18.0,83,0.00,,,0.23,Wunderground v.1.15,2013-05-17 15:17:00,
2013-05-17 10:22:00,68.2,62.8,29.79,SE,143,10.0,17.0,83,0.00,,,0.23,Wunderground v.1.15,2013-05-17 15:22:00,
2013-05-17 10:27:00,68.8,63.4,29.80,SE,141,13.0,17.0,83,0.00,,,0.23,Wunderground v.1.15,2013-05-17 15:27:00,
2013-05-17 10:32:00,69.2,63.8,29.80,SE,138,10.0,15.0,83,0.00,,,0.23,Wunderground v.1.15,2013-05-17 15:32:00,
2013-05-17 10:37:00,69.6,63.9,29.80,SSE,157,13.0,15.0,82,0.00,,,0.23,Wunderground v.1.15,2013-05-17 15:37:00,
2013-05-17 10:42:00,69.8,64.1,29.79,SSE,151,10.0,17.0,82,0.00,,,0.23,Wunderground v.1.15,2013-05-17 15:42:00,
2013-05-17 10:47:00,69.9,63.8,29.80,SSE,153,9.0,17.0,81,0.00,,,0.23,Wunderground v.1.15,2013-05-17 15:47:00,
2013-05-17 10:52:00,70.4,64.3,29.79,SE,146,10.0,14.0,81,0.00,,,0.23,Wunderground v.1.15,2013-05-17 15:52:00,
2013-05-17 10:57:00,70.8,64.3,29.79,SE,136,12.0,17.0,80,0.00,,,0.23,Wunderground v.1.15,2013-05-17 15:57:00,
2013-05-17 11:02:00,70.7,64.6,29.79,SE,131,10.0,15.0,81,0.00,,,0.23,Wunderground v.1.15,2013-05-17 16:02:00,
2013-05-17 11:07:00,70.7,64.6,29.79,SSE,157,6.0,15.0,81,0.00,,,0.23,Wunderground v.1.15,2013-05-17 16:07:00,
2013-05-17 11:12:00,70.9,64.4,29.79,SE,144,13.0,14.0,80,0.00,,,0.23,Wunderground v.1.15,2013-05-17 16:12:00,
2013-05-17 11:17:00,71.3,64.4,29.79,SE,140,8.0,16.0,79,0.00,,,0.23,Wunderground v.1.15,2013-05-17 16:17:00,
2013-05-17 11:22:00,71.1,64.3,29.79,SE,145,10.0,16.0,79,0.00,,,0.23,Wunderground v.1.15,2013-05-17 16:22:00,
2013-05-17 11:27:00,71.6,64.4,29.79,SSE,164,10.0,16.0,78,0.00,,,0.23,Wunderground v.1.15,2013-05-17 16:27:00,
2013-05-17 11:33:00,71.5,63.9,29.79,SSE,148,9.0,16.0,77,0.00,,,0.23,Wunderground v.1.15,2013-05-17 16:33:00,
2013-05-17 11:38:00,72.0,64.8,29.79,SSE,157,11.0,16.0,78,0.00,,,0.23,Wunderground v.1.15,2013-05-17 16:38:00,
2013-05-17 11:43:00,72.6,65.7,29.79,SSE,161,9.0,11.0,79,0.00,,,0.23,Wunderground v.1.15,2013-05-17 16:43:00,
2013-05-17 11:48:00,73.0,65.4,29.79,SE,141,9.0,13.0,77,0.00,,,0.23,Wunderground v.1.15,2013-05-17 16:48:00,
2013-05-17 11:53:00,72.7,64.7,29.78,South,169,8.0,12.0,76,0.00,,,0.23,Wunderground v.1.15,2013-05-17 16:53:00,
2013-05-17 11:58:00,73.3,64.9,29.78,SSE,160,6.0,12.0,75,0.00,,,0.23,Wunderground v.1.15,2013-05-17 16:58:00,
2013-05-17 12:03:00,73.3,64.9,29.78,South,173,14.0,15.0,75,0.00,,,0.23,Wunderground v.1.15,2013-05-17 17:03:00,
2013-05-17 12:08:00,73.2,64.0,29.78,SSE,165,5.0,15.0,73,0.00,,,0.23,Wunderground v.1.15,2013-05-17 17:08:00,
2013-05-17 12:13:00,73.6,65.2,29.78,South,177,6.0,14.0,75,0.00,,,0.23,Wunderground v.1.15,2013-05-17 17:13:00,
2013-05-17 12:18:00,74.0,64.8,29.78,SSE,165,10.0,14.0,73,0.00,,,0.23,Wunderground v.1.15,2013-05-17 17:18:00,
2013-05-17 12:23:00,73.9,65.1,29.77,SSE,166,13.0,14.0,74,0.00,,,0.23,Wunderground v.1.15,2013-05-17 17:23:00,
2013-05-17 12:28:00,74.3,65.1,29.77,SSE,165,5.0,14.0,73,0.00,,,0.23,Wunderground v.1.15,2013-05-17 17:28:00,
2013-05-17 12:33:00,74.5,64.9,29.77,SSE,157,7.0,13.0,72,0.00,,,0.23,Wunderground v.1.15,2013-05-17 17:33:00,
2013-05-17 12:38:00,74.2,65.0,29.77,SSE,167,8.0,13.0,73,0.00,,,0.23,Wunderground v.1.15,2013-05-17 17:38:00,
2013-05-17 12:43:00,74.3,65.1,29.77,South,169,12.0,14.0,73,0.00,,,0.23,Wunderground v.1.15,2013-05-17 17:43:00,
2013-05-17 12:49:00,74.5,65.7,29.77,South,188,7.0,14.0,74,0.00,,,0.23,Wunderground v.1.15,2013-05-17 17:49:00,
2013-05-17 12:54:00,74.9,66.1,29.77,SSE,162,10.0,13.0,74,0.00,,,0.23,Wunderground v.1.15,2013-05-17 17:54:00,
2013-05-17 12:59:00,74.9,64.5,29.77,South,173,8.0,13.0,70,0.00,,,0.23,Wunderground v.1.15,2013-05-17 17:59:00,
2013-05-17 13:04:00,75.2,65.1,29.77,South,171,14.0,14.0,71,0.00,,,0.23,Wunderground v.1.15,2013-05-17 18:04:00,
2013-05-17 13:09:00,74.8,64.8,29.77,SSE,165,11.0,14.0,71,0.00,,,0.23,Wunderground v.1.15,2013-05-17 18:09:00,
2013-05-17 13:14:00,75.3,65.6,29.77,South,169,8.0,13.0,72,0.00,,,0.23,Wunderground v.1.15,2013-05-17 18:14:00,
2013-05-17 13:19:00,74.9,64.5,29.77,South,175,7.0,13.0,70,0.00,,,0.23,Wunderground v.1.15,2013-05-17 18:19:00,
2013-05-17 13:24:00,74.7,65.1,29.77,South,181,12.0,12.0,72,0.00,,,0.23,Wunderground v.1.15,2013-05-17 18:24:00,
2013-05-17 13:29:00,75.3,64.4,29.77,South,178,7.0,16.0,69,0.00,,,0.23,Wunderground v.1.15,2013-05-17 18:29:00,
2013-05-17 13:34:00,76.0,66.7,29.77,South,176,8.0,11.0,73,0.00,,,0.23,Wunderground v.1.15,2013-05-17 18:34:00,
2013-05-17 13:39:00,76.1,65.2,29.77,South,191,6.0,12.0,69,0.00,,,0.23,Wunderground v.1.15,2013-05-17 18:39:00,
2013-05-17 13:44:00,75.8,64.5,29.77,SSE,161,8.0,15.0,68,0.00,,,0.23,Wunderground v.1.15,2013-05-17 18:44:00,
2013-05-17 13:49:00,76.1,64.8,29.77,SSE,160,10.0,15.0,68,0.00,,,0.23,Wunderground v.1.15,2013-05-17 18:49:00,
2013-05-17 13:54:00,76.8,64.6,29.76,South,180,7.0,15.0,66,0.00,,,0.23,Wunderground v.1.15,2013-05-17 18:54:00,
2013-05-17 13:59:00,77.5,64.8,29.76,South,172,10.0,10.0,65,0.00,,,0.23,Wunderground v.1.15,2013-05-17 18:59:00,
2013-05-17 14:04:00,77.5,65.7,29.76,South,169,10.0,13.0,67,0.00,,,0.23,Wunderground v.1.15,2013-05-17 19:04:00,
2013-05-17 14:10:00,77.5,65.2,29.76,SSE,158,8.0,9.0,66,0.00,,,0.23,Wunderground v.1.15,2013-05-17 19:10:00,
2013-05-17 14:16:00,78.2,65.5,29.76,South,169,8.0,13.0,65,0.00,,,0.23,Wunderground v.1.15,2013-05-17 19:16:00,
2013-05-17 14:21:00,77.1,64.0,29.76,South,171,5.0,13.0,64,0.00,,,0.23,Wunderground v.1.15,2013-05-17 19:21:00,
2013-05-17 14:26:00,77.9,64.7,29.76,South,180,7.0,14.0,64,0.00,,,0.23,Wunderground v.1.15,2013-05-17 19:26:00,
2013-05-17 14:31:00,78.4,66.1,29.76,South,182,5.0,9.0,66,0.00,,,0.23,Wunderground v.1.15,2013-05-17 19:31:00,
2013-05-17 14:36:00,78.3,63.7,29.76,South,180,9.0,10.0,61,0.00,,,0.23,Wunderground v.1.15,2013-05-17 19:36:00,
2013-05-17 14:41:00,77.2,64.1,29.76,SSE,161,7.0,14.0,64,0.00,,,0.23,Wunderground v.1.15,2013-05-17 19:41:00,
2013-05-17 14:46:00,78.1,62.6,29.75,South,182,8.0,14.0,59,0.00,,,0.23,Wunderground v.1.15,2013-05-17 19:46:00,
2013-05-17 14:51:00,78.8,62.8,29.75,SSW,208,7.0,12.0,58,0.00,,,0.23,Wunderground v.1.15,2013-05-17 19:51:00,
2013-05-17 14:56:00,79.6,63.5,29.75,South,187,10.0,18.0,58,0.00,,,0.23,Wunderground v.1.15,2013-05-17 19:56:00,
2013-05-17 15:01:00,80.0,62.9,29.75,SW,217,10.0,11.0,56,0.00,,,0.23,Wunderground v.1.15,2013-05-17 20:01:00,
2013-05-17 15:06:00,80.1,63.5,29.75,SSW,194,13.0,14.0,57,0.00,,,0.23,Wunderground v.1.15,2013-05-17 20:06:00,
2013-05-17 15:11:00,78.9,62.4,29.75,South,186,9.0,12.0,57,0.00,,,0.23,Wunderground v.1.15,2013-05-17 20:11:00,
2013-05-17 15:16:00,78.7,63.2,29.75,SSW,195,5.0,13.0,59,0.00,,,0.23,Wunderground v.1.15,2013-05-17 20:16:00,
2013-05-17 15:21:00,79.1,63.1,29.75,South,179,11.0,13.0,58,0.00,,,0.23,Wunderground v.1.15,2013-05-17 20:21:00,
2013-05-17 15:27:00,78.7,63.2,29.74,South,171,10.0,14.0,59,0.00,,,0.23,Wunderground v.1.15,2013-05-17 20:27:00,
2013-05-17 15:31:00,79.6,63.5,29.74,SSW,196,7.0,12.0,58,0.00,,,0.23,Wunderground v.1.15,2013-05-17 20:31:00,
2013-05-17 15:36:00,80.4,61.7,29.74,SSW,192,11.0,13.0,53,0.00,,,0.23,Wunderground v.1.15,2013-05-17 20:36:00,
2013-05-17 15:41:00,81.0,63.3,29.74,SSW,207,7.0,11.0,55,0.00,,,0.23,Wunderground v.1.15,2013-05-17 20:41:00,
2013-05-17 15:47:00,80.6,63.5,29.74,SSE,163,11.0,13.0,56,0.00,,,0.23,Wunderground v.1.15,2013-05-17 20:47:00,
2013-05-17 15:52:00,79.3,61.7,29.74,South,179,10.0,17.0,55,0.00,,,0.23,Wunderground v.1.15,2013-05-17 20:52:00,
2013-05-17 15:56:00,78.3,62.8,29.74,South,186,8.0,17.0,59,0.00,,,0.23,Wunderground v.1.15,2013-05-17 20:56:00,
2013-05-17 16:02:00,78.0,61.5,29.73,South,187,11.0,11.0,57,0.00,,,0.23,Wunderground v.1.15,2013-05-17 21:02:00,
2013-05-17 16:07:00,79.2,64.1,29.73,South,176,9.0,11.0,60,0.00,,,0.23,Wunderground v.1.15,2013-05-17 21:07:00,
2013-05-17 16:12:00,80.5,62.8,29.73,South,180,11.0,16.0,55,0.00,,,0.23,Wunderground v.1.15,2013-05-17 21:12:00,
2013-05-17 16:17:00,80.5,63.4,29.73,SSW,196,7.0,16.0,56,0.00,,,0.23,Wunderground v.1.15,2013-05-17 21:17:00,
2013-05-17 16:22:00,80.7,64.1,29.73,South,169,12.0,15.0,57,0.00,,,0.23,Wunderground v.1.15,2013-05-17 21:22:00,
2013-05-17 16:27:00,79.3,63.2,29.73,South,176,8.0,15.0,58,0.00,,,0.23,Wunderground v.1.15,2013-05-17 21:27:00,
2013-05-17 16:32:00,78.9,62.4,29.74,South,183,7.0,10.0,57,0.00,,,0.23,Wunderground v.1.15,2013-05-17 21:32:00,
2013-05-17 16:37:00,78.7,62.2,29.73,South,172,6.0,12.0,57,0.00,,,0.23,Wunderground v.1.15,2013-05-17 21:37:00,
2013-05-17 16:42:00,79.2,62.1,29.73,South,178,5.0,10.0,56,0.00,,,0.23,Wunderground v.1.15,2013-05-17 21:42:00,
2013-05-17 16:47:00,79.3,61.7,29.73,South,175,11.0,14.0,55,0.00,,,0.23,Wunderground v.1.15,2013-05-17 21:47:00,
2013-05-17 16:52:00,79.1,63.1,29.73,South,186,11.0,12.0,58,0.00,,,0.23,Wunderground v.1.15,2013-05-17 21:52:00,
2013-05-17 16:57:00,78.7,62.7,29.74,South,174,8.0,14.0,58,0.00,,,0.23,Wunderground v.1.15,2013-05-17 21:57:00,
2013-05-17 17:02:00,78.4,62.9,29.74,South,175,8.0,11.0,59,0.00,,,0.23,Wunderground v.1.15,2013-05-17 22:02:00,
2013-05-17 17:07:00,78.5,63.9,29.74,South,175,10.0,11.0,61,0.00,,,0.23,Wunderground v.1.15,2013-05-17 22:07:00,
2013-05-17 17:12:00,79.4,63.3,29.73,South,183,8.0,10.0,58,0.00,,,0.23,Wunderground v.1.15,2013-05-17 22:12:00,
2013-05-17 17:17:00,80.1,63.5,29.73,SSW,195,11.0,14.0,57,0.00,,,0.23,Wunderground v.1.15,2013-05-17 22:17:00,
2013-05-17 17:22:00,80.1,62.5,29.73,SSW,196,7.0,11.0,55,0.00,,,0.23,Wunderground v.1.15,2013-05-17 22:22:00,
2013-05-17 17:27:00,80.9,64.2,29.73,South,187,9.0,12.0,57,0.00,,,0.23,Wunderground v.1.15,2013-05-17 22:27:00,
2013-05-17 17:32:00,80.8,63.1,29.73,SSW,198,8.0,11.0,55,0.00,,,0.23,Wunderground v.1.15,2013-05-17 22:32:00,
2013-05-17 17:37:00,81.2,62.4,29.73,SSW,194,8.0,16.0,53,0.00,,,0.23,Wunderground v.1.15,2013-05-17 22:37:00,
2013-05-17 17:42:00,81.5,61.6,29.73,SSW,209,7.0,12.0,51,0.00,,,0.23,Wunderground v.1.15,2013-05-17 22:42:00,
2013-05-17 17:47:00,81.2,61.4,29.73,SSW,202,9.0,14.0,51,0.00,,,0.23,Wunderground v.1.15,2013-05-17 22:47:00,
2013-05-17 17:52:00,81.2,61.9,29.74,SSW,206,8.0,13.0,52,0.00,,,0.23,Wunderground v.1.15,2013-05-17 22:52:00,
2013-05-17 17:57:00,81.0,60.6,29.75,South,169,9.0,15.0,50,0.00,,,0.23,Wunderground v.1.15,2013-05-17 22:57:00,
2013-05-17 18:02:00,81.1,62.3,29.75,South,180,7.0,11.0,53,0.00,,,0.23,Wunderground v.1.15,2013-05-17 23:02:00,
2013-05-17 18:07:00,80.9,61.6,29.75,South,185,10.0,14.0,52,0.00,,,0.23,Wunderground v.1.15,2013-05-17 23:07:00,
2013-05-17 18:12:00,79.2,64.6,29.75,ESE,107,17.0,17.0,61,0.00,,,0.23,Wunderground v.1.15,2013-05-17 23:12:00,
2013-05-17 18:17:00,76.6,64.4,29.75,ESE,123,13.0,18.0,66,0.00,,,0.23,Wunderground v.1.15,2013-05-17 23:17:00,
2013-05-17 18:22:00,76.0,63.8,29.74,ESE,114,11.0,15.0,66,0.00,,,0.23,Wunderground v.1.15,2013-05-17 23:22:00,
2013-05-17 18:27:00,75.4,63.7,29.75,ESE,114,7.0,15.0,67,0.00,,,0.23,Wunderground v.1.15,2013-05-17 23:27:00,
2013-05-17 18:32:00,75.5,63.8,29.75,ESE,108,11.0,15.0,67,0.00,,,0.23,Wunderground v.1.15,2013-05-17 23:32:00,
2013-05-17 18:38:00,75.4,64.5,29.75,ESE,117,11.0,15.0,69,0.00,,,0.23,Wunderground v.1.15,2013-05-17 23:38:00,
2013-05-17 18:43:00,74.2,61.7,29.76,ESE,108,13.0,23.0,65,0.00,,,0.23,Wunderground v.1.15,2013-05-17 23:43:00,
2013-05-17 18:48:00,72.6,61.4,29.75,ESE,109,13.0,23.0,68,0.00,,,0.23,Wunderground v.1.15,2013-05-17 23:48:00,
2013-05-17 18:53:00,72.0,61.7,29.76,ESE,113,7.0,15.0,70,0.00,,,0.23,Wunderground v.1.15,2013-05-17 23:53:00,
2013-05-17 18:58:00,72.2,61.9,29.76,ESE,108,9.0,15.0,70,0.00,,,0.23,Wunderground v.1.15,2013-05-17 23:58:00,
2013-05-17 19:03:00,72.6,61.8,29.75,ESE,110,13.0,14.0,69,0.00,,,0.23,Wunderground v.1.15,2013-05-18 00:03:00,
2013-05-17 19:08:00,72.7,61.9,29.75,ESE,119,8.0,14.0,69,0.00,,,0.23,Wunderground v.1.15,2013-05-18 00:08:00,
2013-05-17 19:13:00,72.8,62.0,29.75,SE,127,8.0,16.0,69,0.00,,,0.23,Wunderground v.1.15,2013-05-18 00:13:00,
2013-05-17 19:18:00,73.2,62.8,29.74,SE,130,7.0,16.0,70,0.00,,,0.23,Wunderground v.1.15,2013-05-18 00:18:00,
2013-05-17 19:23:00,73.0,63.0,29.74,SE,140,10.0,13.0,71,0.00,,,0.23,Wunderground v.1.15,2013-05-18 00:23:00,
2013-05-17 19:28:00,72.4,62.1,29.74,SE,128,10.0,14.0,70,0.00,,,0.23,Wunderground v.1.15,2013-05-18 00:28:00,
2013-05-17 19:33:00,72.1,62.2,29.74,SE,132,11.0,14.0,71,0.00,,,0.23,Wunderground v.1.15,2013-05-18 00:33:00,
2013-05-17 19:38:00,71.8,61.5,29.74,SE,133,9.0,14.0,70,0.00,,,0.23,Wunderground v.1.15,2013-05-18 00:38:00,
2013-05-17 19:43:00,71.3,61.0,29.74,SE,128,9.0,15.0,70,0.00,,,0.23,Wunderground v.1.15,2013-05-18 00:43:00,
2013-05-17 19:48:00,70.8,60.9,29.74,SE,128,8.0,16.0,71,0.00,,,0.23,Wunderground v.1.15,2013-05-18 00:48:00,
2013-05-17 19:53:00,70.4,60.5,29.74,ESE,119,7.0,12.0,71,0.00,,,0.23,Wunderground v.1.15,2013-05-18 00:53:00,
2013-05-17 19:58:00,70.2,60.4,29.74,SE,126,8.0,14.0,71,0.00,,,0.23,Wunderground v.1.15,2013-05-18 00:58:00,
2013-05-17 20:03:00,70.2,60.7,29.74,SE,132,13.0,13.0,72,0.00,,,0.23,Wunderground v.1.15,2013-05-18 01:03:00,
2013-05-17 20:08:00,70.3,60.4,29.74,SE,140,6.0,13.0,71,0.00,,,0.23,Wunderground v.1.15,2013-05-18 01:08:00,
2013-05-17 20:13:00,70.2,60.4,29.73,SE,139,6.0,12.0,71,0.00,,,0.23,Wunderground v.1.15,2013-05-18 01:13:00,
2013-05-17 20:19:00,69.9,60.1,29.73,SE,140,6.0,12.0,71,0.00,,,0.23,Wunderground v.1.15,2013-05-18 01:19:00,
2013-05-17 20:24:00,69.6,59.8,29.74,SE,139,7.0,10.0,71,0.00,,,0.23,Wunderground v.1.15,2013-05-18 01:24:00,
2013-05-17 20:29:00,69.7,59.5,29.73,SE,145,8.0,11.0,70,0.00,,,0.23,Wunderground v.1.15,2013-05-18 01:29:00,
2013-05-17 20:34:00,69.9,59.3,29.73,SE,145,4.0,9.0,69,0.00,,,0.23,Wunderground v.1.15,2013-05-18 01:34:00,
2013-05-17 20:39:00,70.1,59.0,29.73,SSE,147,7.0,12.0,68,0.00,,,0.23,Wunderground v.1.15,2013-05-18 01:39:00,
2013-05-17 20:44:00,70.1,59.0,29.73,SE,146,6.0,10.0,68,0.00,,,0.23,Wunderground v.1.15,2013-05-18 01:44:00,
2013-05-17 20:49:00,69.9,58.9,29.74,SSE,147,6.0,10.0,68,0.00,,,0.23,Wunderground v.1.15,2013-05-18 01:49:00,
2013-05-17 20:54:00,69.4,58.8,29.74,SSE,147,9.0,10.0,69,0.00,,,0.23,Wunderground v.1.15,2013-05-18 01:54:00,
2013-05-17 20:59:00,68.9,59.1,29.74,SE,146,6.0,10.0,71,0.00,,,0.23,Wunderground v.1.15,2013-05-18 01:59:00,
2013-05-17 21:04:00,68.5,59.1,29.75,SSE,147,6.0,8.0,72,0.00,,,0.23,Wunderground v.1.15,2013-05-18 02:04:00,
2013-05-17 21:09:00,68.3,58.9,29.75,SSE,147,4.0,10.0,72,0.00,,,0.23,Wunderground v.1.15,2013-05-18 02:09:00,
2013-05-17 21:14:00,67.8,58.8,29.75,SSE,147,3.0,6.0,73,0.00,,,0.23,Wunderground v.1.15,2013-05-18 02:14:00,
2013-05-17 21:19:00,67.7,58.7,29.76,SE,146,5.0,8.0,73,0.00,,,0.23,Wunderground v.1.15,2013-05-18 02:19:00,
2013-05-17 21:24:00,67.8,58.4,29.76,SSE,147,6.0,7.0,72,0.00,,,0.23,Wunderground v.1.15,2013-05-18 02:24:00,
2013-05-17 21:29:00,68.0,58.2,29.76,SSE,147,5.0,8.0,71,0.00,,,0.23,Wunderground v.1.15,2013-05-18 02:29:00,
2013-05-17 21:34:00,67.4,58.4,29.76,SE,146,5.0,6.0,73,0.00,,,0.23,Wunderground v.1.15,2013-05-18 02:34:00,
2013-05-17 21:39:00,66.7,58.1,29.77,SSE,147,3.0,6.0,74,0.00,,,0.23,Wunderground v.1.15,2013-05-18 02:39:00,
2013-05-17 21:44:00,66.9,58.7,29.76,SSE,147,6.0,9.0,75,0.00,,,0.23,Wunderground v.1.15,2013-05-18 02:44:00,
2013-05-17 21:49:00,67.1,58.9,29.76,SSE,147,6.0,9.0,75,0.00,,,0.23,Wunderground v.1.15,2013-05-18 02:49:00,
2013-05-17 21:54:00,67.2,59.0,29.76,SSE,147,6.0,8.0,75,0.00,,,0.23,Wunderground v.1.15,2013-05-18 02:54:00,
2013-05-17 21:59:00,67.2,59.4,29.76,SSE,147,5.0,8.0,76,0.00,,,0.23,Wunderground v.1.15,2013-05-18 02:59:00,
2013-05-17 22:04:00,67.3,59.5,29.77,SSE,147,6.0,8.0,76,0.00,,,0.23,Wunderground v.1.15,2013-05-18 03:04:00,
2013-05-17 22:09:00,67.3,59.8,29.77,SSE,147,5.0,8.0,77,0.00,,,0.23,Wunderground v.1.15,2013-05-18 03:09:00,
2013-05-17 22:14:00,67.4,59.9,29.77,SE,146,7.0,8.0,77,0.00,,,0.23,Wunderground v.1.15,2013-05-18 03:14:00,
2013-05-17 22:19:00,67.5,60.4,29.77,SE,146,7.0,8.0,78,0.00,,,0.23,Wunderground v.1.15,2013-05-18 03:19:00,
2013-05-17 22:24:00,67.6,60.5,29.77,SE,146,6.0,9.0,78,0.00,,,0.23,Wunderground v.1.15,2013-05-18 03:24:00,
2013-05-17 22:29:00,67.8,60.7,29.77,SSE,147,6.0,11.0,78,0.00,,,0.23,Wunderground v.1.15,2013-05-18 03:29:00,
2013-05-17 22:34:00,67.7,60.6,29.77,SSE,147,7.0,10.0,78,0.00,,,0.23,Wunderground v.1.15,2013-05-18 03:34:00,
2013-05-17 22:39:00,67.8,60.7,29.77,SSE,147,7.0,11.0,78,0.00,,,0.23,Wunderground v.1.15,2013-05-18 03:39:00,
2013-05-17 22:44:00,67.8,60.7,29.78,SE,146,7.0,9.0,78,0.00,,,0.23,Wunderground v.1.15,2013-05-18 03:44:00,
2013-05-17 22:49:00,68.0,60.5,29.78,SSE,147,8.0,9.0,77,0.00,,,0.23,Wunderground v.1.15,2013-05-18 03:49:00,
2013-05-17 22:54:00,68.0,60.5,29.78,SSE,147,8.0,10.0,77,0.00,,,0.23,Wunderground v.1.15,2013-05-18 03:54:00,
2013-05-17 22:59:00,68.1,60.6,29.78,SSE,147,4.0,10.0,77,0.00,,,0.23,Wunderground v.1.15,2013-05-18 03:59:00,
2013-05-17 23:01:00,67.9,60.4,29.78,SE,146,6.0,8.0,77,0.00,,,0.23,Wunderground v.1.15,2013-05-18 04:01:00,
2013-05-17 23:02:00,67.9,60.4,29.78,SE,146,3.0,9.0,77,0.00,,,0.23,Wunderground v.1.15,2013-05-18 04:02:00,
2013-05-17 23:07:00,67.5,60.4,29.78,SE,146,5.0,9.0,78,0.00,,,0.23,Wunderground v.1.15,2013-05-18 04:07:00,
2013-05-17 23:12:00,67.1,60.4,29.78,SE,146,5.0,9.0,79,0.00,,,0.23,Wunderground v.1.15,2013-05-18 04:12:00,
2013-05-17 23:17:00,66.6,59.9,29.78,SE,146,4.0,9.0,79,0.00,,,0.23,Wunderground v.1.15,2013-05-18 04:17:00,
2013-05-17 23:22:00,66.4,60.0,29.78,SE,145,7.0,10.0,80,0.00,,,0.23,Wunderground v.1.15,2013-05-18 04:22:00,
2013-05-17 23:27:00,66.5,60.1,29.78,SE,146,6.0,10.0,80,0.00,,,0.23,Wunderground v.1.15,2013-05-18 04:27:00,
2013-05-17 23:32:00,66.6,60.2,29.78,SE,146,8.0,9.0,80,0.00,,,0.23,Wunderground v.1.15,2013-05-18 04:32:00,
2013-05-17 23:37:00,66.8,60.4,29.78,SE,145,4.0,9.0,80,0.00,,,0.23,Wunderground v.1.15,2013-05-18 04:37:00,
2013-05-17 23:42:00,66.9,60.2,29.78,SE,145,4.0,12.0,79,0.00,,,0.23,Wunderground v.1.15,2013-05-18 04:42:00,
2013-05-17 23:47:00,67.1,60.4,29.77,SE,144,6.0,12.0,79,0.00,,,0.23,Wunderground v.1.15,2013-05-18 04:47:00,
2013-05-17 23:52:00,67.0,60.3,29.77,SE,144,6.0,11.0,79,0.00,,,0.23,Wunderground v.1.15,2013-05-18 04:52:00,
2013-05-17 23:57:00,67.2,60.1,29.78,SE,144,8.0,13.0,78,0.00,,,0.23,Wunderground v.1.15,2013-05-18 04:57:00,